DECAYED

NOAA 17 DEB, 49484 (Decayed)

Orbit data source: Space-Track

NOAA 17 DEB, 49484 was space debris in SSO originally from a launch on Mon, 24 Jun 2002 UTC launched from the Air Force Western Test Range (AFWTR). Debris objects in space refer to the collection of defunct objects orbiting the Earth. Examples of debris include non-operational satellites, rocket bodies, and fragments generated from explosions, collisions, or faulty payload assembly.

Not visible in the next 10 days
Identifier
49484, 2002-032DN
Orbit
Decayed
Country
Flag of USUS
Related business
Manufacturer
Unknown
Mission
Decayed spacecraft
Bus & Motor
Unknown
Mass
Unknown
Launch date (UTC)
2002-06-24 (24 years ago)
Launch vehicle
Unknown
Launch site
Air Force Western Test Range (AFWTR)
Object type
Payload
Rocket body
Debris
Shape & HBR
Unknown shape, 0.1 m
Radar Cross Section
Small (<0.1 m²)

Expand to show TLE details & history
Last TLE update: 1 year ago

TLE from 1 year ago
0 NOAA 17 DEB
1 49484U 02032DN  25098.40641204  .00817052  00000-0  30552-1 0  9990
2 49484  98.6543  86.3631 0023891 121.3823 238.9752 15.24481952199383
Epoch: 2025-04-08T09:45Z
TLE epoch observation values (Epoch: 2025-04-08T09:45:14.000Z)
Latitude
-0.00004°
Longitude
103.14683°
Altitude
503.89 km
Speed
7.608 km/s
True Right ascension
05h 45m 27s
True Declination
0° 00' 00"
Sunlit
Object was in daylight at epoch
Visualization orbit readout
Latitude
Unknown
Longitude
Unknown
Altitude
Unknown
Speed
Unknown
Apparent Right ascension
Unknown
Apparent Declination
Unknown
Sunlit
N/A
Visualization observer readout
Local Sidereal Time
21:34:46
Azimuth
Unknown
Elevation
Unknown
Doppler factor
Unknown
Orbital elements
Apogee altitude
505.766 km
Perigee altitude
472.952 km
Semi-major axis
6,867.496 km
Eccentricity
0.00239
Inclination
98.6543°
RAAN
86.3631°
Arg. of periapsis
121.3823°
True anomaly
238.74095°
Mean anomaly
238.9752°
Eccentric anomaly
238.85804°
Mean motion
3.81369 °/min
Orbital period
94.4 mins
BSTAR
0.030552
Loading maneuver chart data...
Computing Atmospheric mass density...

Documentation

Showing up to 5 results
|